Погода в Бородянке

Украина / Киевская область     50°38′44″N   29°55′14″E
темп.,
°C
ветер,
м/с
пор.,
м/с
влажн.,
%
обл.,
%
осадки,
мм/ч
давл.,
гПа
погр.,
м
17 октября, вс
вс1700:00+6сз369275 0.0 1020133
03:00+5зсз258910 0.0 102096
06:00+3з23925 0.0 102042
09:00+6зсз25809 0.0 1020160
12:00+11зсз455232 0.0 10201277
15:00+12зсз454666 0.0 10191590
18:00+7сз346422 0.0 102082
21:00+4з247525 0.0 102056
18 октября, пн
пн1800:00+5зюз2469100 0.0 1021108
03:00+4зюз377499 0.0 1020138
06:00+4зюз3971100 0.0 1020258
09:00+7зюз4962100 0.0 1020424
12:00+9з5759100 0.0 10201018
15:00+10зсз5753100 0.0 10191243
18:00+9зсз5869100 0.0 1019904
21:00+7з3885100 0.1 1020330
19 октября, вт
вт1900:00+7зсз2692100 2.3 1020359
03:00+4сз39910 2.6 1022264
06:00+1сз39900 0.0 1024228
09:00+3сз39820 0.0 1025275
12:00+8сз57543 0.0 1026925
15:00+9сз573859 0.0 10261307
18:00+5сз345116 0.0 102661
21:00+3зсз2362100 0.0 102746
20 октября, ср
ср2000:00+2з226599 0.0 102827
03:00+3юз2360100 0.0 102769
06:00+2юз226368 0.0 102736
09:00+4ю3753100 0.0 1026223
12:00+10ююз5841100 0.0 1024543
15:00+14ююз694589 0.0 10211043
18:00+13ююз51255100 0.0 1020507
21:00+12ююз61454100 0.0 1018567
21 октября, чт
чт2100:00+11ююз51357100 0.0 1017399
03:00+12ююз51354100 0.0 1016430
06:00+10ююз51264100 0.0 1015314
09:00+11ююз51365100 0.0 1014368
12:00+15ююз61149100 0.0 1013539
15:00+18ююз61043100 0.0 1011813
18:00+16ююз61346100 0.0 1010519
21:00+14юз61453100 0.0 1009450